TimePDT,TemperatureF,Dew PointF,Humidity,Sea Level PressureIn,VisibilityMPH,Wind Direction,Wind SpeedMPH,Gust SpeedMPH,PrecipitationIn,Events,Conditions,WindDirDegrees,DateUTC
12:15 AM,51.8,48.2,88,30.10,10.0,Calm,Calm,-,N/A,,Clear,0,2012-09-14 07:15:00
12:35 AM,51.8,48.2,88,30.10,10.0,Calm,Calm,-,N/A,,Clear,0,2012-09-14 07:35:00
12:55 AM,50.0,48.2,94,30.10,10.0,Calm,Calm,-,N/A,,Clear,0,2012-09-14 07:55:00
1:15 AM,50.0,48.2,94,30.09,10.0,Calm,Calm,-,N/A,,Clear,0,2012-09-14 08:15:00
1:35 AM,48.2,46.4,93,30.10,10.0,Calm,Calm,-,N/A,,Clear,0,2012-09-14 08:35:00
1:55 AM,50.0,48.2,94,30.10,4.0,NNE,3.5,-,N/A,,Clear,20,2012-09-14 08:55:00
2:15 AM,48.2,46.4,93,30.09,9.0,Calm,Calm,-,N/A,,Clear,0,2012-09-14 09:15:00
2:35 AM,48.2,46.4,93,30.09,3.0,Calm,Calm,-,N/A,,Clear,0,2012-09-14 09:35:00
2:55 AM,46.4,44.6,93,30.09,5.0,Calm,Calm,-,N/A,,Clear,0,2012-09-14 09:55:00
3:15 AM,48.2,46.4,93,30.09,1.8,Calm,Calm,-,N/A,,Clear,0,2012-09-14 10:15:00
3:35 AM,46.4,44.6,93,30.09,5.0,Calm,Calm,-,N/A,,Clear,0,2012-09-14 10:35:00
3:55 AM,48.2,46.4,93,30.08,1.0,Calm,Calm,-,N/A,,Clear,0,2012-09-14 10:55:00
4:15 AM,46.4,46.4,100,30.08,0.5,Calm,Calm,-,N/A,,Mostly Cloudy,0,2012-09-14 11:15:00
4:35 AM,44.6,42.8,93,30.08,0.5,Calm,Calm,-,N/A,,Mostly Cloudy,0,2012-09-14 11:35:00
4:55 AM,46.4,44.6,93,30.08,0.8,Calm,Calm,-,N/A,,Unknown,0,2012-09-14 11:55:00
5:15 AM,46.4,44.6,93,30.08,0.2,Calm,Calm,-,N/A,,Unknown,0,2012-09-14 12:15:00
5:35 AM,44.6,42.8,93,30.08,0.8,Calm,Calm,-,N/A,,Mostly Cloudy,0,2012-09-14 12:35:00
5:55 AM,44.6,42.8,93,30.08,0.5,Calm,Calm,-,N/A,,Mostly Cloudy,0,2012-09-14 12:55:00
6:15 AM,44.6,42.8,93,30.09,0.5,Calm,Calm,-,N/A,,Overcast,0,2012-09-14 13:15:00
6:35 AM,42.8,41.0,93,30.09,0.8,Calm,Calm,-,N/A,,Overcast,0,2012-09-14 13:35:00
6:55 AM,42.8,41.0,93,30.10,0.2,Calm,Calm,-,N/A,,Overcast,0,2012-09-14 13:55:00
7:15 AM,44.6,44.6,100,30.11,5.0,Calm,Calm,-,N/A,,Scattered Clouds,0,2012-09-14 14:15:00
7:35 AM,44.6,42.8,93,30.11,10.0,Calm,Calm,-,N/A,,Clear,0,2012-09-14 14:35:00
7:55 AM,46.4,44.6,93,30.11,10.0,Calm,Calm,-,N/A,,Clear,0,2012-09-14 14:55:00
8:15 AM,48.2,46.4,93,30.11,10.0,Calm,Calm,-,N/A,,Clear,0,2012-09-14 15:15:00
8:35 AM,50.0,48.2,94,30.11,10.0,Calm,Calm,-,N/A,,Clear,0,2012-09-14 15:35:00
8:55 AM,51.8,48.2,88,30.11,10.0,Calm,Calm,-,N/A,,Clear,0,2012-09-14 15:55:00
9:15 AM,53.6,48.2,82,30.11,10.0,Calm,Calm,-,N/A,,Clear,0,2012-09-14 16:15:00
9:35 AM,55.4,48.2,77,30.11,7.0,WNW,3.5,-,N/A,,Clear,300,2012-09-14 16:35:00
9:55 AM,57.2,48.2,72,30.11,-9999.0,Calm,Calm,-,N/A,,Clear,0,2012-09-14 16:55:00
10:15 AM,60.8,48.2,63,30.11,10.0,Calm,Calm,-,N/A,,Clear,0,2012-09-14 17:15:00
10:35 AM,62.6,51.8,68,30.11,10.0,NNW,4.6,-,N/A,,Clear,340,2012-09-14 17:35:00
10:55 AM,62.6,51.8,68,30.10,10.0,North,3.5,-,N/A,,Clear,360,2012-09-14 17:55:00
11:15 AM,66.2,51.8,60,30.10,10.0,NW,5.8,-,N/A,,Clear,320,2012-09-14 18:15:00
11:35 AM,66.2,50.0,56,30.10,10.0,Calm,Calm,-,N/A,,Clear,0,2012-09-14 18:35:00
11:55 AM,69.8,51.8,53,30.09,10.0,Calm,Calm,-,N/A,,Clear,0,2012-09-14 18:55:00
12:15 PM,69.8,51.8,53,30.09,10.0,NNW,4.6,-,N/A,,Clear,340,2012-09-14 19:15:00
12:35 PM,71.6,51.8,50,30.08,10.0,NW,6.9,-,N/A,,Clear,310,2012-09-14 19:35:00
12:55 PM,71.6,53.6,53,30.08,10.0,NW,5.8,-,N/A,,Clear,320,2012-09-14 19:55:00
1:15 PM,71.6,53.6,53,30.08,10.0,NW,8.1,-,N/A,,Clear,320,2012-09-14 20:15:00
1:35 PM,73.4,55.4,53,30.07,10.0,WNW,8.1,-,N/A,,Clear,290,2012-09-14 20:35:00
1:55 PM,73.4,55.4,53,30.07,10.0,WNW,8.1,-,N/A,,Clear,300,2012-09-14 20:55:00
2:15 PM,75.2,53.6,47,30.07,10.0,WNW,10.4,-,N/A,,Clear,300,2012-09-14 21:15:00
2:35 PM,75.2,53.6,47,30.06,10.0,WNW,10.4,-,N/A,,Clear,300,2012-09-14 21:35:00
2:55 PM,75.2,51.8,44,30.06,10.0,NW,10.4,-,N/A,,Clear,310,2012-09-14 21:55:00
3:15 PM,75.2,50.0,41,30.05,10.0,NW,10.4,-,N/A,,Clear,310,2012-09-14 22:15:00
3:35 PM,75.2,48.2,38,30.05,10.0,WNW,11.5,-,N/A,,Clear,300,2012-09-14 22:35:00
3:55 PM,75.2,50.0,41,30.04,10.0,NW,11.5,-,N/A,,Clear,310,2012-09-14 22:55:00
4:15 PM,75.2,51.8,44,30.04,10.0,NW,11.5,-,N/A,,Clear,310,2012-09-14 23:15:00
4:35 PM,75.2,51.8,44,30.04,10.0,WNW,11.5,-,N/A,,Clear,290,2012-09-14 23:35:00
4:55 PM,75.2,51.8,44,30.04,10.0,WNW,8.1,-,N/A,,Clear,300,2012-09-14 23:55:00
5:15 PM,75.2,51.8,44,30.04,10.0,WNW,4.6,-,N/A,,Clear,300,2012-09-15 00:15:00
5:35 PM,73.4,51.8,47,30.03,10.0,WNW,4.6,-,N/A,,Clear,290,2012-09-15 00:35:00
5:55 PM,73.4,51.8,47,30.03,10.0,West,6.9,-,N/A,,Clear,280,2012-09-15 00:55:00
6:15 PM,73.4,51.8,47,30.03,10.0,WNW,4.6,-,N/A,,Clear,290,2012-09-15 01:15:00
6:35 PM,71.6,51.8,50,30.03,10.0,WNW,5.8,-,N/A,,Clear,300,2012-09-15 01:35:00
6:55 PM,68.0,51.8,56,30.03,10.0,WNW,4.6,-,N/A,,Clear,300,2012-09-15 01:55:00
7:15 PM,66.2,50.0,56,30.03,10.0,Calm,Calm,-,N/A,,Clear,0,2012-09-15 02:15:00
7:35 PM,64.4,48.2,56,30.04,7.0,Calm,Calm,-,N/A,,Clear,0,2012-09-15 02:35:00
7:55 PM,64.4,48.2,56,30.04,10.0,Calm,Calm,-,N/A,,Clear,0,2012-09-15 02:55:00
8:15 PM,60.8,48.2,63,30.05,10.0,Calm,Calm,-,N/A,,Clear,0,2012-09-15 03:15:00
8:35 PM,59.0,48.2,67,30.05,10.0,Calm,Calm,-,N/A,,Clear,0,2012-09-15 03:35:00
8:55 PM,60.8,48.2,63,30.06,10.0,Calm,Calm,-,N/A,,Clear,0,2012-09-15 03:55:00
9:35 PM,55.4,48.2,77,30.06,10.0,Calm,Calm,-,N/A,,Clear,0,2012-09-15 04:35:00
9:55 PM,53.6,46.4,77,30.06,10.0,Calm,Calm,-,N/A,,Clear,0,2012-09-15 04:55:00
10:15 PM,53.6,48.2,82,30.06,10.0,North,3.5,-,N/A,,Clear,10,2012-09-15 05:15:00
10:35 PM,53.6,48.2,82,30.07,10.0,NNW,3.5,-,N/A,,Clear,340,2012-09-15 05:35:00
10:55 PM,51.8,48.2,88,30.07,10.0,North,4.6,-,N/A,,Clear,350,2012-09-15 05:55:00
11:15 PM,51.8,48.2,88,30.07,10.0,WNW,4.6,-,N/A,,Clear,300,2012-09-15 06:15:00
11:35 PM,51.8,46.4,82,30.07,10.0,Calm,Calm,-,N/A,,Clear,0,2012-09-15 06:35:00
11:55 PM,50.0,46.4,87,30.08,10.0,Calm,Calm,-,N/A,,Clear,0,2012-09-15 06:55:00